Flag for U.S.A. Weather past 2 weeks in Pensacola, Florida, U.S.A.

Now
80 °F

Clear.


Feels Like: 84 °F
Forecast: 74 / 87 °F
Wind: 6 mph from South

Location: Pensacola Regional Airport

Current Time: Jul 13, 2014 at 9:49:09 PM

Latest Report: Jul 13, 2014 at 8:53 PM


Visibility: 10 mi

Pressure: 30.06 "Hg

Humidity: 76%

Dew point: 72 °F

Location of PensacolaLocation

Historic Weather in Pensacola — Graph

°F

Pensacola temperature yesterday

Maximum temperature yesterday: 87 °F (at 1:53 PM)
Minimum temperature yesterday: 72 °F (at 5:53 AM)
Average temperature yesterday: 79 °F

Past Weeks' High & Low Weather Summary

 TemperatureHumidityPressure
High94 °F (Jul 1, 2:53 PM)97% (Jul 10, 10:53 PM)30.19 "Hg (Jul 10, 10:53 PM)
Low70 °F (Jul 5, 2:53 AM)32% (Jul 4, 4:53 PM)29.93 "Hg (Jul 1, 7:53 PM)
Average82 °F70%30.06 "Hg
* Reported Jun 28 7:53 PM — Jul 13 7:53 PM, Pensacola, Weather by CustomWeather, © 2014

Note: Actual official high and low records may vary slightly from our data, if they occured in-between our weather recording intervals... More about our weather records

Advertising

Pensacola weather history for previous 24 hours

 ConditionsComfort  
Time TempWeatherWind HumidityBarometerVisibility
7:53 PM
Jul 13
81 °FClear.7 mph74%30.05 "Hg10 mi
6:53 PM82 °FSunny.10 mph70%30.03 "Hg10 mi
5:53 PM84 °FSunny.10 mph65%30.03 "Hg10 mi
4:53 PM85 °FSunny.10 mph63%30.04 "Hg10 mi
3:53 PM87 °FSunny.9 mph57%30.06 "Hg10 mi
2:53 PM87 °FSunny.15 mph61%30.06 "Hg10 mi
1:53 PM86 °FPassing clouds.10 mph65%30.09 "Hg10 mi
12:53 PM87 °FPassing clouds.12 mph59%30.10 "Hg10 mi
11:53 AM86 °FSunny.12 mph61%30.12 "Hg10 mi
10:53 AM85 °FSunny.8 mph65%30.13 "Hg10 mi
9:53 AM83 °FSunny.7 mph72%30.13 "Hg10 mi
8:53 AM82 °FSunny.7 mph77%30.13 "Hg10 mi
7:53 AM76 °FRain. Fog.No wind91%30.11 "Hg6 mi
7:00 AM76 °FScattered clouds.12 mph94%30.11 "Hg10 mi
5:53 AM74 °FClear.No wind97%30.08 "Hg10 mi
4:53 AM74 °FClear.6 mph94%30.07 "Hg10 mi
3:53 AM74 °FClear.No wind94%30.06 "Hg10 mi
2:53 AM74 °FClear.No wind91%30.06 "Hg10 mi
1:53 AM74 °FClear.5 mph91%30.06 "Hg10 mi
12:53 AM73 °FClear.3 mph90%30.07 "Hg10 mi
11:53 PM
Jul 12
75 °FClear.No wind79%30.09 "Hg10 mi
10:53 PM75 °FClear.5 mph82%30.10 "Hg10 mi
9:53 PM76 °FPassing clouds.7 mph74%30.09 "Hg10 mi
Weather by CustomWeather, © 2014

See weather overviewHow to use our weather pages